Notices

What's New in latest Release from April 7th, 2021:

- Updated Glossary, including Speed of Maximum Gust, and Total Hourly Precipitation

- Updated national and regional climate services offices contacts and prices information

- Addition of station inventory lists for 1981-2010, 1971-2000, and 1961-1990 Normals.

If you haven't already, please take our survey and provide feedback about our website: https://eccc.sondage-survey.ca/f/LanguageSelection.aspx?s=442ca660-fcf1-47c0-95a9-59707d6fd709

Hourly Data Report for November 11, 2016

CARBERRY CS
MANITOBA

49°54'20.900" N
99°21'26.800" W
383.50 m
5010547
71170
WZE

Download Data

Hourly Data (November 2016)
Hourly Data Report for November 11, 2016
TIME
LST
Temp Definition
°C
Dew Point Definition
°C
Rel Hum Definition
%
Precip. Amount Definition
mm

Wind Dir Definition
10's deg

Wind Spd Definition
km/h
Visibility Definition
km
Stn Press Definition
kPa
Hmdx Definition


Wind Chill Definition


Weather Definition


00:00 -1.0 -2.0 93 0.0 2 3   98.59   -2 LegendNANA
01:00 -3.0 -4.0 93 0.0 33 3   98.62   -4 LegendNANA
02:00 -3.4 -3.9 96 0.0   0   98.59     LegendNANA
03:00 -4.4 -5.0 95 0.0 29 5   98.67   -7 LegendNANA
04:00 -4.3 -4.8 97 0.0 29 4   98.64   -6 LegendNANA
05:00 -5.4 -6.0 96 0.0   0   98.63     LegendNANA
06:00 -5.7 -6.2 96 0.0 24 2   98.66   -7 LegendNANA
07:00 -6.3 -7.0 94 0.0 0 1   98.65   -7 LegendNANA
08:00 -5.3 -6.0 95 0.0 22 5   98.60   -8 LegendNANA
09:00 -2.4 -3.1 95 0.0 19 5   98.57   -4 LegendNANA
10:00 -0.2 -1.2 92 0.0 18 15   98.49   -5 LegendNANA
11:00 2.3 -0.7 80 0.0 19 20   98.41     LegendNANA
12:00 5.0 0.0 70 0.0 19 18   98.30     LegendNANA
13:00 7.0 -0.2 60 0.0 19 22   98.12     LegendNANA
14:00 8.2 -0.8 53 0.0 20 23   97.99     LegendNANA
15:00 8.2 -0.2 55 0.0 18 27   97.86     LegendNANA
16:00 8.3 -0.1 55 0.0 19 23   97.74     LegendNANA
17:00 6.5 -0.2 62 0.0 18 19   97.64     LegendNANA
18:00 5.7 0.5 69 0.0 19 24   97.50     LegendNANA
19:00 5.2 0.4 71 0.0 19 20   97.37     LegendNANA
20:00 5.5 0.3 69 0.0 19 21   97.24     LegendNANA
21:00 4.9 0.0 71 0.0 19 18   97.11     LegendNANA
22:00 5.9 0.0 66 0.0 20 20   97.00     LegendNANA
23:00 5.5 -1.0 63 0.0 21 17   96.89     LegendNANA

Notes on Data Quality.

Legend

  • E = Estimated
  • M = Missing
  • NA = Not Available*
  • [empty] = Indicates an unobserved value
Date modified: